SITKA AML AK US NWS current weather conditions

sailwx.info

Wind from 150 at 2 knots gusting 5

Air temperature 11.6° C
Dewpoint 8.1° C

Last reported at 2020-Aug-12 06:12 UTC.
Time now 2020-Aug-12 06:44 UTC

Location: N 57°07' W 135°23'.
View on Google Maps.

See reports from other nearby stations

  
Tides and Currents Weather Stations Pressure Air Temp Water Temp Dewpoint Dewpoint Depression Visibility Wind Speed Wind Dir Waves Ship Positions
date/time (UTC)wind fromknots sea level pressurealtimeterstation pressurevisibilityair tempwater tempwave heightnotes
2020-Aug-12 06:12 150 2 gusting 5 11.6
2020-Aug-12 06:02 140 1 gusting 5 11.7
2020-Aug-12 05:53 140 2 gusting 5 11.9
2020-Aug-12 05:42 150 2 gusting 5 12.4
2020-Aug-12 05:33 170 1 gusting 2 12.5
2020-Aug-12 05:22 160 1 gusting 4 12.5
2020-Aug-12 05:12 150 1 gusting 4 12.6
2020-Aug-12 05:03 12.8
2020-Aug-12 04:52 12.6
2020-Aug-12 04:42 060 0 gusting 4 12.7
2020-Aug-12 04:32 120 0 gusting 2 12.7
2020-Aug-12 04:23 040 1 gusting 2 12.5
2020-Aug-12 04:13 020 2 gusting 5 12.5
2020-Aug-12 04:02 030 2 gusting 6 12.7
2020-Aug-12 03:52 360 1 gusting 4 12.7
2020-Aug-12 03:42 310 5 gusting 6 12.6
2020-Aug-12 03:32 300 5 gusting 7 12.7
2020-Aug-12 03:22 300 6 gusting 8 12.8
2020-Aug-12 03:12 300 6 gusting 11 12.8
2020-Aug-12 03:02 320 6 gusting 9 13.0
2020-Aug-12 02:52 300 5 gusting 7 13.3
2020-Aug-12 02:43 330 5 gusting 6 13.3
2020-Aug-12 02:33 320 5 gusting 7 13.3
2020-Aug-12 02:22 330 6 gusting 9 13.2
2020-Aug-12 02:12 330 6 gusting 9 13.1
2020-Aug-12 02:02 310 6 gusting 11 13.3
2020-Aug-12 01:52 310 8 gusting 11 13.8
2020-Aug-12 01:43 310 7 gusting 11 14.2
2020-Aug-12 01:33 300 6 gusting 9 14.4
2020-Aug-12 01:23 300 6 gusting 9 14.1
2020-Aug-12 01:13 310 6 gusting 12 13.9
2020-Aug-12 01:02 310 6 gusting 9 13.8
2020-Aug-12 00:53 310 6 gusting 9 13.9
2020-Aug-12 00:43 290 6 gusting 9 14.1
2020-Aug-12 00:32 300 6 gusting 9 14.3
2020-Aug-12 00:23 290 6 gusting 8 14.3
2020-Aug-12 00:13 290 6 gusting 12 14.0
2020-Aug-11 23:52 310 5 gusting 8 14.6
2020-Aug-11 23:42 290 2 gusting 6 15.5
2020-Aug-11 23:33 240 2 gusting 5 15.6
2020-Aug-11 23:23 230 2 gusting 6 15.4
2020-Aug-11 23:13 230 2 gusting 6 15.7
2020-Aug-11 23:02 230 2 gusting 6 16.1
2020-Aug-11 22:52 220 2 gusting 6 16.3
2020-Aug-11 22:43 250 4 gusting 7 16.7
2020-Aug-11 22:33 240 2 gusting 6 16.0
2020-Aug-11 22:23 240 4 gusting 6 15.9
2020-Aug-11 22:12 240 1 gusting 5 16.2
2020-Aug-11 22:02 260 1 gusting 4 15.9
2020-Aug-11 21:53 160 2 gusting 6 15.2
2020-Aug-11 21:43 170 2 gusting 7 15.0
2020-Aug-11 21:32 230 2 gusting 6 14.4
2020-Aug-11 21:22 230 2 gusting 6 14.3
2020-Aug-11 21:12 230 2 gusting 6 14.7
2020-Aug-11 21:04 210 2 gusting 6 14.8
2020-Aug-11 20:52 230 4 gusting 7 15.4
2020-Aug-11 20:42 230 2 gusting 7 16.1
2020-Aug-11 20:33 230 2 gusting 7 16.2
2020-Aug-11 20:22 240 2 gusting 6 16.0
2020-Aug-11 20:13 290 2 gusting 5 15.7
2020-Aug-11 20:03 300 1 gusting 2 15.9
2020-Aug-11 19:53 290 1 gusting 2 15.8
2020-Aug-11 19:42 270 1 gusting 4 16.2
2020-Aug-11 19:33 260 1 gusting 4 15.6
2020-Aug-11 19:23 240 2 gusting 5 15.6
2020-Aug-11 19:13 260 1 gusting 6 15.6
2020-Aug-11 19:02 310 0 gusting 1 14.9
2020-Aug-11 18:52 300 1 gusting 2 15.3
2020-Aug-11 18:42 290 1 gusting 2 15.4
2020-Aug-11 18:32 330 0 gusting 2 15.5
2020-Aug-11 18:22 14.8
2020-Aug-11 18:13 290 0 gusting 1 14.9
2020-Aug-11 18:02 14.3
2020-Aug-11 17:52 320 1 gusting 5 13.7
2020-Aug-11 17:42 13.5
2020-Aug-11 17:32 350 1 gusting 2 12.7
2020-Aug-11 17:23 320 0 gusting 1 13.9
2020-Aug-11 17:13 13.5
2020-Aug-11 17:02 11.9
2020-Aug-11 16:53 330 0 gusting 1 11.2
2020-Aug-11 16:43 340 1 gusting 5 11.5
2020-Aug-11 16:32 260 0 gusting 2 12.2
2020-Aug-11 16:23 11.4
2020-Aug-11 16:12 340 0 gusting 2 11.3
2020-Aug-11 16:03 340 1 gusting 4 11.0
2020-Aug-11 15:52 11.0
2020-Aug-11 15:42 360 1 gusting 6 10.2
2020-Aug-11 15:32 340 1 gusting 5 10.7
2020-Aug-11 15:23 020 1 gusting 5 10.4
2020-Aug-11 15:13 180 1 gusting 4 11.0
2020-Aug-11 15:03 180 0 gusting 4 10.9
2020-Aug-11 14:53 10.6
2020-Aug-11 14:42 10.5
2020-Aug-11 14:32 150 0 gusting 4 10.3
2020-Aug-11 14:22 150 1 gusting 2 10.4
2020-Aug-11 14:13 10.0
2020-Aug-11 14:02 9.8
2020-Aug-11 13:52 010 0 gusting 2 9.7
2020-Aug-11 13:42 140 1 gusting 4 9.6
2020-Aug-11 13:32 160 2 gusting 5 9.7
2020-Aug-11 13:22 160 1 gusting 4 9.8
2020-Aug-11 13:12 010 0 gusting 1 9.9
2020-Aug-11 13:02 150 0 gusting 1 10.0
2020-Aug-11 12:52 10.0
2020-Aug-11 12:42 140 0 gusting 2 9.9
2020-Aug-11 12:32 150 1 gusting 2 9.9
2020-Aug-11 12:22 150 1 gusting 4 9.9
2020-Aug-11 12:12 140 1 gusting 4 9.8
2020-Aug-11 12:02 340 0 gusting 4 9.8
2020-Aug-11 11:52 150 1 gusting 4 9.8
2020-Aug-11 11:43 160 2 gusting 5 9.9
2020-Aug-11 11:32 030 0 gusting 2 9.9
2020-Aug-11 11:22 090 0 gusting 4 10.1
2020-Aug-11 11:12 160 1 gusting 4 10.3
2020-Aug-11 11:02 10.1
2020-Aug-11 10:52 220 0 gusting 1 10.1
2020-Aug-11 10:42 160 1 gusting 6 10.0
2020-Aug-11 10:32 140 2 gusting 6 10.1
2020-Aug-11 10:23 10.1
2020-Aug-11 10:12 140 0 gusting 2 10.1
2020-Aug-11 10:02 10.1
2020-Aug-11 09:52 10.1
2020-Aug-11 09:43 10.0
2020-Aug-11 09:32 120 0 gusting 4 10.0
2020-Aug-11 09:22 150 1 gusting 5 10.0
2020-Aug-11 09:12 160 1 gusting 4 10.0
2020-Aug-11 09:03 140 0 gusting 2 10.0
2020-Aug-11 08:52 020 0 gusting 2 10.0
2020-Aug-11 08:43 10.0
2020-Aug-11 08:33 150 0 gusting 2 10.0
2020-Aug-11 08:23 150 1 gusting 4 10.0
2020-Aug-11 08:12 110 1 gusting 2 10.0
2020-Aug-11 08:03 060 1 gusting 4 10.0
2020-Aug-11 07:52 120 1 gusting 6 10.0
2020-Aug-11 07:42 130 0 gusting 2 10.2
2020-Aug-11 07:33 150 1 gusting 4 10.2
2020-Aug-11 07:23 150 0 gusting 2 10.2
2020-Aug-11 07:13 140 1 gusting 4 10.2
2020-Aug-11 07:02 130 0 gusting 4 10.3
2020-Aug-11 06:52 140 2 gusting 6 10.4
2020-Aug-11 06:42 140 4 gusting 6 10.4
2020-Aug-11 06:33 140 4 gusting 6 10.5
2020-Aug-11 06:22 140 2 gusting 6 10.6
2020-Aug-11 06:12 140 2 gusting 5 10.6
2020-Aug-11 06:02 140 4 gusting 6 10.6
2020-Aug-11 05:52 150 2 gusting 6 10.7
2020-Aug-11 05:43 140 4 gusting 6 10.9
2020-Aug-11 05:33 140 2 gusting 5 11.0
2020-Aug-11 05:22 160 1 gusting 5 11.1
2020-Aug-11 05:13 160 2 gusting 6 11.0
2020-Aug-11 05:02 160 5 gusting 7 10.9
2020-Aug-11 04:52 150 4 gusting 7 10.9
2020-Aug-11 04:42 160 4 gusting 6 10.9
2020-Aug-11 04:33 170 4 gusting 7 10.8
2020-Aug-11 04:23 170 4 gusting 8 10.6
2020-Aug-11 04:13 150 4 gusting 7 10.6
2020-Aug-11 04:02 170 6 gusting 14 10.6
2020-Aug-11 03:52 180 5 gusting 12 11.3
2020-Aug-11 03:42 200 2 gusting 6 12.0
2020-Aug-11 03:32 210 2 gusting 7 12.7
2020-Aug-11 03:23 200 2 gusting 7 13.1
2020-Aug-11 03:13 180 1 gusting 6 13.3
2020-Aug-11 03:03 170 1 gusting 6 13.3
2020-Aug-11 02:52 170 2 gusting 8 13.3
2020-Aug-11 02:42 170 4 gusting 9 13.4
2020-Aug-11 02:33 200 2 gusting 8 13.4
2020-Aug-11 02:23 200 4 gusting 11 13.3
2020-Aug-11 02:12 210 4 gusting 8 13.3
2020-Aug-11 02:02 210 2 gusting 7 13.4
2020-Aug-11 01:53 200 4 gusting 12 13.4
2020-Aug-11 01:43 200 5 gusting 14 13.6
2020-Aug-11 01:33 200 2 gusting 6 13.7
2020-Aug-11 01:23 200 4 gusting 9 13.6
2020-Aug-11 01:13 190 5 gusting 13 13.5
2020-Aug-11 01:02 190 5 gusting 13 13.5
2020-Aug-11 00:52 210 5 gusting 13 13.6
2020-Aug-11 00:42 190 5 gusting 13 13.3
2020-Aug-11 00:32 190 5 gusting 14 13.2
2020-Aug-11 00:23 190 5 gusting 12 13.4
2020-Aug-11 00:13 200 5 gusting 12 13.6
2020-Aug-10 23:52 200 2 gusting 7 14.1
2020-Aug-10 23:43 200 6 gusting 13 14.1
2020-Aug-10 23:32 210 4 gusting 9 14.3
2020-Aug-10 23:22 210 2 gusting 12 14.1
2020-Aug-10 23:12 200 4 gusting 11 13.6
2020-Aug-10 23:02 200 5 gusting 11 13.3
2020-Aug-10 22:53 190 4 gusting 9 13.2
2020-Aug-10 22:42 200 4 gusting 12 12.8
2020-Aug-10 22:33 200 4 gusting 11 13.0
2020-Aug-10 22:23 220 4 gusting 14 12.6
2020-Aug-10 22:13 200 4 gusting 9 12.4
2020-Aug-10 22:02 190 5 gusting 12 12.5
2020-Aug-10 21:52 190 5 gusting 13 12.4
2020-Aug-10 21:42 200 6 gusting 14 12.4
2020-Aug-10 21:32 190 5 gusting 11 12.8
2020-Aug-10 21:22 190 6 gusting 13 13.0
2020-Aug-10 21:14 190 4 gusting 8 13.2
2020-Aug-10 21:03 230 5 gusting 13 12.8
2020-Aug-10 20:53 210 6 gusting 13 12.7
2020-Aug-10 20:43 190 6 gusting 13 12.4
2020-Aug-10 20:33 180 6 gusting 14 12.2
2020-Aug-10 20:23 180 7 gusting 14 12.0
2020-Aug-10 20:13 170 7 gusting 17 11.9
2020-Aug-10 20:02 180 6 gusting 15 11.7
2020-Aug-10 19:52 180 6 gusting 14 11.7
2020-Aug-10 19:43 180 6 gusting 14 11.3
2020-Aug-10 19:32 170 6 gusting 14 11.0
2020-Aug-10 19:23 180 6 gusting 14 11.3
2020-Aug-10 19:13 200 6 gusting 17 11.8
2020-Aug-10 19:02 200 5 gusting 13 12.1
2020-Aug-10 18:52 190 6 gusting 14 12.1
2020-Aug-10 18:42 180 5 gusting 11 12.1
2020-Aug-10 18:33 180 7 gusting 17 11.7
2020-Aug-10 18:22 190 8 gusting 19 11.5
2020-Aug-10 18:12 180 6 gusting 15 11.5
2020-Aug-10 18:02 210 5 gusting 13 11.6
2020-Aug-10 17:52 190 5 gusting 9 11.8
2020-Aug-10 17:43 180 6 gusting 15 11.8
2020-Aug-10 17:32 180 5 gusting 13 11.8
2020-Aug-10 17:22 180 6 gusting 13 11.8
2020-Aug-10 17:12 180 6 gusting 14 11.7
2020-Aug-10 17:02 190 6 gusting 15 11.8
2020-Aug-10 16:54 180 6 gusting 14 11.7
2020-Aug-10 16:42 180 7 gusting 21 11.7
2020-Aug-10 16:33 180 8 gusting 19 11.4
2020-Aug-10 16:23 180 8 gusting 19 11.0
2020-Aug-10 16:12 180 8 gusting 20 10.9
2020-Aug-10 16:02 190 5 gusting 14 11.0
2020-Aug-10 15:52 170 6 gusting 14 11.4
2020-Aug-10 15:42 180 6 gusting 15 11.2
2020-Aug-10 15:32 170 7 gusting 15 10.9
2020-Aug-10 15:23 180 8 gusting 17 11.2
2020-Aug-10 15:13 190 5 gusting 13 12.0
2020-Aug-10 15:03 180 6 gusting 17 12.1
2020-Aug-10 14:53 180 6 gusting 13 12.0
2020-Aug-10 14:44 190 6 gusting 12 11.9
2020-Aug-10 14:43 190 6 gusting 12 11.9
2020-Aug-10 13:32 180 6 gusting 13 12.0
2020-Aug-10 13:22 180 6 gusting 18 12.0
2020-Aug-10 13:13 190 6 gusting 15 12.1
2020-Aug-10 13:02 190 5 gusting 13 12.1
2020-Aug-10 12:52 190 6 gusting 14 12.2
2020-Aug-10 12:43 210 4 gusting 11 12.2
2020-Aug-10 12:33 210 5 gusting 13 12.1
2020-Aug-10 12:23 190 5 gusting 12 12.0
2020-Aug-10 12:12 180 6 gusting 13 12.0
2020-Aug-10 12:03 190 7 gusting 19 11.9
2020-Aug-10 11:52 190 6 gusting 13 12.0
2020-Aug-10 11:42 190 7 gusting 17 12.0
2020-Aug-10 11:32 190 8 gusting 19 12.0
2020-Aug-10 11:22 190 7 gusting 20 12.0
2020-Aug-10 11:12 190 8 gusting 21 11.9
2020-Aug-10 11:02 190 8 gusting 18 11.9
2020-Aug-10 10:52 190 7 gusting 20 11.8
2020-Aug-10 10:42 190 6 gusting 18 11.8
2020-Aug-10 10:32 200 6 gusting 19 11.9
2020-Aug-10 10:23 200 6 gusting 17 11.9
2020-Aug-10 10:13 190 7 gusting 24 11.9
2020-Aug-10 10:02 190 7 gusting 22 11.9
2020-Aug-10 09:52 190 6 gusting 19 11.9
2020-Aug-10 09:42 200 6 gusting 20 11.8
2020-Aug-10 09:32 200 7 gusting 27 11.7
2020-Aug-10 09:22 190 6 gusting 18 11.5
2020-Aug-10 09:12 200 6 gusting 19 11.6
2020-Aug-10 09:03 200 6 gusting 20 11.8
2020-Aug-10 08:52 210 6 gusting 20 11.8
2020-Aug-10 08:43 200 7 gusting 20 11.8
2020-Aug-10 08:33 200 6 gusting 20 11.7
2020-Aug-10 08:23 190 8 gusting 27 11.7
2020-Aug-10 08:12 190 8 gusting 20 11.7
2020-Aug-10 08:02 200 8 gusting 18 11.7
2020-Aug-10 07:52 200 11 gusting 21 11.6
2020-Aug-10 07:42 190 12 gusting 24 11.7
2020-Aug-10 07:33 200 11 gusting 22 11.6
2020-Aug-10 07:22 200 11 gusting 25 11.6
2020-Aug-10 07:13 190 12 gusting 27 11.6
2020-Aug-10 07:02 200 13 gusting 31 11.6
2020-Aug-10 06:52 190 12 gusting 21 11.6
2020-Aug-10 06:42 200 9 gusting 21 11.6
2020-Aug-10 06:32 190 13 gusting 26 11.6
2020-Aug-10 06:22 190 13 gusting 27 11.6
2020-Aug-10 06:12 190 13 gusting 34 11.5
2020-Aug-10 06:02 190 12 gusting 26 11.4